Time,TemperatureF,DewpointF,PressureIn,WindDirection,WindDirectionDegrees,WindSpeedMPH,WindSpeedGustMPH,Humidity,HourlyPrecipIn,Conditions,Clouds,dailyrainin,SoftwareType,DateUTC
2013-05-22 00:09:00,50.3,32.0,30.00,NW,309,4.0,8.0,49,0.00,,,0.00,weatherlink.com 1.10,2013-05-22 07:09:00,
2013-05-22 00:24:00,50.1,30.0,30.00,NW,320,4.0,9.0,47,0.00,,,0.00,weatherlink.com 1.10,2013-05-22 07:24:00,
2013-05-22 00:39:00,50.9,31.0,30.00,WNW,284,8.0,18.0,46,0.00,,,0.00,weatherlink.com 1.10,2013-05-22 07:39:00,
2013-05-22 00:54:00,50.7,30.0,30.00,WNW,300,9.0,15.0,46,0.00,,,0.00,weatherlink.com 1.10,2013-05-22 07:54:00,
2013-05-22 01:09:00,50.5,31.0,30.01,WNW,299,7.0,21.0,47,0.00,,,0.00,weatherlink.com 1.10,2013-05-22 08:09:00,
2013-05-22 01:24:00,49.9,30.0,30.01,NW,312,8.0,15.0,47,0.00,,,0.00,weatherlink.com 1.10,2013-05-22 08:24:00,
2013-05-22 01:39:00,49.8,31.0,30.01,NW,315,9.0,18.0,48,0.00,,,0.00,weatherlink.com 1.10,2013-05-22 08:39:00,
2013-05-22 01:54:00,49.4,30.0,30.01,NW,317,6.0,13.0,48,0.00,,,0.00,weatherlink.com 1.10,2013-05-22 08:54:00,
2013-05-22 02:09:00,49.0,30.0,30.01,WNW,292,3.0,16.0,49,0.00,,,0.00,weatherlink.com 1.10,2013-05-22 09:09:00,
2013-05-22 02:24:00,48.8,31.0,30.02,NW,315,6.0,15.0,50,0.00,,,0.00,weatherlink.com 1.10,2013-05-22 09:24:00,
2013-05-22 02:39:00,48.7,30.0,30.02,WNW,303,7.0,15.0,49,0.00,,,0.00,weatherlink.com 1.10,2013-05-22 09:39:00,
2013-05-22 02:54:00,48.3,30.0,30.02,NW,322,7.0,13.0,50,0.00,,,0.00,weatherlink.com 1.10,2013-05-22 09:54:00,
2013-05-22 03:09:00,47.8,30.0,30.02,WNW,288,4.0,11.0,51,0.00,,,0.00,weatherlink.com 1.10,2013-05-22 10:09:00,
2013-05-22 03:24:00,47.2,30.0,30.02,NW,307,4.0,7.0,51,0.00,,,0.00,weatherlink.com 1.10,2013-05-22 10:24:00,
2013-05-22 03:39:00,46.7,29.0,30.02,NW,309,3.0,10.0,51,0.00,,,0.00,weatherlink.com 1.10,2013-05-22 10:39:00,
2013-05-22 03:54:00,47.8,29.0,30.02,West,275,7.0,15.0,48,0.00,,,0.00,weatherlink.com 1.10,2013-05-22 10:54:00,
2013-05-22 04:09:00,47.4,28.0,30.02,West,271,10.0,12.0,48,0.00,,,0.00,weatherlink.com 1.10,2013-05-22 11:09:00,
2013-05-22 04:25:00,48.0,28.0,30.00,WNW,297,4.0,15.0,47,0.00,,,0.00,weatherlink.com 1.10,2013-05-22 11:25:00,
2013-05-22 04:40:00,48.1,29.0,30.00,NW,311,8.0,13.0,47,0.00,,,0.00,weatherlink.com 1.10,2013-05-22 11:40:00,
2013-05-22 04:55:00,47.8,28.0,30.01,WNW,295,12.0,18.0,46,0.00,,,0.00,weatherlink.com 1.10,2013-05-22 11:55:00,
2013-05-22 05:10:00,47.7,28.0,30.02,NNW,333,2.0,9.0,46,0.00,,,0.00,weatherlink.com 1.10,2013-05-22 12:10:00,
2013-05-22 05:25:00,46.2,28.0,30.02,NNW,332,2.0,2.0,50,0.00,,,0.00,weatherlink.com 1.10,2013-05-22 12:25:00,
2013-05-22 05:40:00,44.2,29.0,30.02,NW,304,3.0,5.0,55,0.00,,,0.00,weatherlink.com 1.10,2013-05-22 12:40:00,
2013-05-22 05:56:00,44.5,29.0,30.02,NW,313,3.0,8.0,55,0.00,,,0.00,weatherlink.com 1.10,2013-05-22 12:56:00,
2013-05-22 06:10:00,44.9,29.0,30.02,NNW,328,7.0,10.0,53,0.00,,,0.00,weatherlink.com 1.10,2013-05-22 13:10:00,
2013-05-22 06:25:00,46.3,28.0,30.03,NW,309,4.0,10.0,50,0.00,,,0.00,weatherlink.com 1.10,2013-05-22 13:25:00,
2013-05-22 06:40:00,46.7,29.0,30.03,NNW,344,3.0,7.0,51,0.00,,,0.00,weatherlink.com 1.10,2013-05-22 13:40:00,
2013-05-22 06:55:00,47.8,30.0,30.03,WNW,300,3.0,9.0,50,0.00,,,0.00,weatherlink.com 1.10,2013-05-22 13:55:00,
2013-05-22 07:10:00,49.2,31.0,30.04,NNW,338,4.0,13.0,49,0.00,,,0.00,weatherlink.com 1.10,2013-05-22 14:10:00,
2013-05-22 07:25:00,49.7,31.0,30.04,NW,314,5.0,11.0,48,0.00,,,0.00,weatherlink.com 1.10,2013-05-22 14:25:00,
2013-05-22 07:40:00,50.3,31.0,30.04,NNW,342,6.0,10.0,48,0.00,,,0.00,weatherlink.com 1.10,2013-05-22 14:40:00,
2013-05-22 07:55:00,50.8,31.0,30.04,NW,305,10.0,14.0,47,0.00,,,0.00,weatherlink.com 1.10,2013-05-22 14:55:00,
2013-05-22 08:10:00,51.3,30.0,30.04,NW,311,10.0,17.0,44,0.00,,,0.00,weatherlink.com 1.10,2013-05-22 15:10:00,
2013-05-22 08:25:00,52.3,30.0,30.04,NNW,336,5.0,15.0,43,0.00,,,0.00,weatherlink.com 1.10,2013-05-22 15:25:00,
2013-05-22 08:40:00,53.2,30.0,30.04,NW,310,10.0,16.0,41,0.00,,,0.00,weatherlink.com 1.10,2013-05-22 15:40:00,
2013-05-22 08:55:00,53.9,30.0,30.04,NNW,336,10.0,15.0,40,0.00,,,0.00,weatherlink.com 1.10,2013-05-22 15:55:00,
2013-05-22 09:10:00,54.5,29.0,30.03,NW,314,7.0,14.0,38,0.00,,,0.00,weatherlink.com 1.10,2013-05-22 16:10:00,
2013-05-22 09:25:00,55.8,31.0,30.03,NNW,342,9.0,16.0,39,0.00,,,0.00,weatherlink.com 1.10,2013-05-22 16:25:00,
2013-05-22 09:40:00,56.8,31.0,30.02,NW,309,5.0,16.0,38,0.00,,,0.00,weatherlink.com 1.10,2013-05-22 16:40:00,
2013-05-22 09:55:00,57.5,31.0,30.02,NW,319,7.0,13.0,37,0.00,,,0.00,weatherlink.com 1.10,2013-05-22 16:55:00,
2013-05-22 10:10:00,58.8,32.0,30.01,NNW,339,13.0,16.0,36,0.00,,,0.00,weatherlink.com 1.10,2013-05-22 17:10:00,
2013-05-22 10:25:00,58.3,31.0,30.01,NW,312,7.0,18.0,35,0.00,,,0.00,weatherlink.com 1.10,2013-05-22 17:25:00,
2013-05-22 10:40:00,59.7,32.0,30.01,West,261,5.0,11.0,35,0.00,,,0.00,weatherlink.com 1.10,2013-05-22 17:40:00,
2013-05-22 10:55:00,60.0,30.0,30.01,WSW,254,13.0,14.0,32,0.00,,,0.00,weatherlink.com 1.10,2013-05-22 17:55:00,
2013-05-22 11:10:00,60.3,32.0,30.01,WNW,286,6.0,12.0,34,0.00,,,0.00,weatherlink.com 1.10,2013-05-22 18:10:00,
2013-05-22 11:25:00,60.7,30.0,30.00,NW,319,8.0,20.0,31,0.00,,,0.00,weatherlink.com 1.10,2013-05-22 18:25:00,
2013-05-22 11:40:00,61.3,30.0,29.99,North,355,2.0,15.0,31,0.00,,,0.00,weatherlink.com 1.10,2013-05-22 18:40:00,
2013-05-22 11:56:00,62.3,33.0,29.99,WNW,296,6.0,12.0,33,0.00,,,0.00,weatherlink.com 1.10,2013-05-22 18:56:00,
2013-05-22 12:11:00,63.1,31.0,29.98,NW,320,5.0,11.0,30,0.00,,,0.00,weatherlink.com 1.10,2013-05-22 19:11:00,
2013-05-22 12:26:00,63.3,29.0,29.98,WNW,298,1.0,11.0,27,0.00,,,0.00,weatherlink.com 1.10,2013-05-22 19:26:00,
2013-05-22 12:41:00,64.5,28.0,29.97,NNW,348,4.0,9.0,25,0.00,,,0.00,weatherlink.com 1.10,2013-05-22 19:41:00,
2013-05-22 12:56:00,65.6,28.0,29.96,WNW,297,0.0,8.0,24,0.00,,,0.00,weatherlink.com 1.10,2013-05-22 19:56:00,
2013-05-22 13:11:00,65.8,28.0,29.96,SW,226,0.0,8.0,24,0.00,,,0.00,weatherlink.com 1.10,2013-05-22 20:11:00,
2013-05-22 13:26:00,66.4,28.0,29.95,West,273,2.0,10.0,24,0.00,,,0.00,weatherlink.com 1.10,2013-05-22 20:26:00,
2013-05-22 13:41:00,66.9,30.0,29.94,ESE,123,2.0,7.0,25,0.00,,,0.00,weatherlink.com 1.10,2013-05-22 20:41:00,
2013-05-22 13:56:00,67.8,37.0,29.94,SE,145,2.0,9.0,32,0.00,,,0.00,weatherlink.com 1.10,2013-05-22 20:56:00,
2013-05-22 14:11:00,68.5,37.0,29.93,WNW,283,4.0,10.0,32,0.00,,,0.00,weatherlink.com 1.10,2013-05-22 21:11:00,
2013-05-22 14:26:00,68.0,39.0,29.93,NW,315,4.0,8.0,35,0.00,,,0.00,weatherlink.com 1.10,2013-05-22 21:26:00,
2013-05-22 14:41:00,68.1,38.0,29.93,WSW,243,7.0,7.0,33,0.00,,,0.00,weatherlink.com 1.10,2013-05-22 21:41:00,
2013-05-22 14:56:00,68.5,42.0,29.92,ESE,113,4.0,9.0,38,0.00,,,0.00,weatherlink.com 1.10,2013-05-22 21:56:00,
2013-05-22 15:11:00,68.7,43.0,29.92,WNW,299,1.0,9.0,39,0.00,,,0.00,weatherlink.com 1.10,2013-05-22 22:11:00,
2013-05-22 15:26:00,68.7,40.0,29.91,WNW,290,0.0,9.0,35,0.00,,,0.00,weatherlink.com 1.10,2013-05-22 22:26:00,
2013-05-22 15:41:00,68.8,41.0,29.91,WSW,249,2.0,7.0,37,0.00,,,0.00,weatherlink.com 1.10,2013-05-22 22:41:00,
2013-05-22 15:56:00,68.6,41.0,29.90,West,263,2.0,11.0,37,0.00,,,0.00,weatherlink.com 1.10,2013-05-22 22:56:00,
2013-05-22 16:11:00,67.5,41.0,29.90,WNW,298,7.0,14.0,38,0.00,,,0.00,weatherlink.com 1.10,2013-05-22 23:11:00,
2013-05-22 16:26:00,67.1,41.0,29.91,NW,322,6.0,16.0,38,0.00,,,0.00,weatherlink.com 1.10,2013-05-22 23:26:00,
2013-05-22 16:41:00,66.3,40.0,29.90,WSW,257,6.0,17.0,38,0.00,,,0.00,weatherlink.com 1.10,2013-05-22 23:41:00,
2013-05-22 16:56:00,66.2,41.0,29.90,WSW,252,2.0,21.0,40,0.00,,,0.00,weatherlink.com 1.10,2013-05-22 23:56:00,
2013-05-22 17:11:00,65.9,39.0,29.90,WNW,282,9.0,14.0,38,0.00,,,0.00,weatherlink.com 1.10,2013-05-23 00:11:00,
2013-05-22 17:26:00,65.6,41.0,29.90,SW,236,5.0,14.0,40,0.00,,,0.00,weatherlink.com 1.10,2013-05-23 00:26:00,
2013-05-22 17:41:00,65.4,41.0,29.89,WNW,290,3.0,14.0,41,0.00,,,0.00,weatherlink.com 1.10,2013-05-23 00:41:00,
2013-05-22 17:56:00,65.4,40.0,29.89,WSW,239,7.0,16.0,40,0.00,,,0.00,weatherlink.com 1.10,2013-05-23 00:56:00,
2013-05-22 18:11:00,65.5,40.0,29.89,NW,315,2.0,9.0,39,0.00,,,0.00,weatherlink.com 1.10,2013-05-23 01:11:00,
2013-05-22 18:26:00,64.7,38.0,29.89,NW,304,6.0,13.0,38,0.00,,,0.00,weatherlink.com 1.10,2013-05-23 01:26:00,
2013-05-22 18:41:00,64.1,38.0,29.90,WNW,288,5.0,10.0,39,0.00,,,0.00,weatherlink.com 1.10,2013-05-23 01:41:00,
2013-05-22 18:56:00,62.7,37.0,29.90,West,276,11.0,15.0,39,0.00,,,0.00,weatherlink.com 1.10,2013-05-23 01:56:00,
2013-05-22 19:11:00,61.8,38.0,29.90,West,275,8.0,15.0,41,0.00,,,0.00,weatherlink.com 1.10,2013-05-23 02:11:00,
2013-05-22 19:26:00,60.3,37.0,29.90,WNW,286,7.0,14.0,43,0.00,,,0.00,weatherlink.com 1.10,2013-05-23 02:26:00,
2013-05-22 19:41:00,59.7,38.0,29.90,NW,323,8.0,11.0,45,0.00,,,0.00,weatherlink.com 1.10,2013-05-23 02:41:00,
2013-05-22 19:56:00,58.5,38.0,29.91,NW,314,6.0,9.0,46,0.00,,,0.00,weatherlink.com 1.10,2013-05-23 02:56:00,
2013-05-22 20:11:00,57.5,38.0,29.91,NW,306,6.0,11.0,48,0.00,,,0.00,weatherlink.com 1.10,2013-05-23 03:11:00,
2013-05-22 20:26:00,56.4,38.0,29.91,WNW,296,1.0,6.0,50,0.00,,,0.00,weatherlink.com 1.10,2013-05-23 03:26:00,
2013-05-22 20:41:00,55.8,38.0,29.91,NW,307,4.0,10.0,51,0.00,,,0.00,weatherlink.com 1.10,2013-05-23 03:41:00,
2013-05-22 20:56:00,55.3,38.0,29.91,NW,309,4.0,8.0,52,0.00,,,0.00,weatherlink.com 1.10,2013-05-23 03:56:00,
2013-05-22 22:14:00,52.1,38.0,29.92,WNW,295,2.0,4.0,58,0.00,,,0.00,weatherlink.com 1.10,2013-05-23 05:14:00,
2013-05-22 22:27:00,51.5,37.0,29.93,WNW,282,0.0,1.0,59,0.00,,,0.00,weatherlink.com 1.10,2013-05-23 05:27:00,
2013-05-22 22:42:00,50.9,38.0,29.92,West,273,0.0,3.0,62,0.00,,,0.00,weatherlink.com 1.10,2013-05-23 05:42:00,
2013-05-22 22:57:00,49.4,38.0,29.92,West,273,0.0,1.0,66,0.00,,,0.00,weatherlink.com 1.10,2013-05-23 05:57:00,
2013-05-22 23:12:00,47.7,38.0,29.92,West,273,0.0,2.0,70,0.00,,,0.00,weatherlink.com 1.10,2013-05-23 06:12:00,
2013-05-22 23:27:00,46.3,38.0,29.92,West,273,1.0,1.0,72,0.00,,,0.00,weatherlink.com 1.10,2013-05-23 06:27:00,
2013-05-22 23:42:00,45.4,38.0,29.92,West,273,0.0,1.0,75,0.00,,,0.00,weatherlink.com 1.10,2013-05-23 06:42:00,
2013-05-22 23:57:00,44.2,37.0,29.91,West,273,0.0,0.0,77,0.00,,,0.00,weatherlink.com 1.10,2013-05-23 06:57:00,